Location: DARK SKY Beskydy - Park tmavé oblohy, www.darkskybeskydy.cz
(49.4926°N, 18.5016°E)
Time: 09:53:57
(UTC+02:00)

Transit 4A - Pass Details

Date: 04 March 2024
Orbit: 871 x 971 km, 66.8° (Epoch: 24 April)

Event Time Altitude Azimuth Distance (km) Brightness Sun altitude
Exits shadow 04:27:26 - 320° (NW) 3,078 10.4 -19.3°
Reaches altitude 10° 04:29:34 10° 335° (NNW) 2,570 10.1 -19.0°
Maximum altitude 04:32:59 15° 10° (N) 2,185 10.1 -18.4°
Drops below altitude 10° 04:36:23 10° 46° (NE) 2,540 11.0 -17.9°
Sets 04:40:00 0° 69° (ENE) 3,468 12.5 -17.3°
